Stations météo

réclame
Mon MeteoGroup
Lycksele, Suède (2261): Température de l'air & dewpoint: 18.02.2018 22:00:00 - 24.02.2018 22:00:00 (CET)Lycksele, Suède (2261): Vitesse du vent & gusts: 18.02.2018 22:00:00 - 24.02.2018 22:00:00 (CET)Lycksele, Suède (2261): Direction du vent: 18.02.2018 22:00:00 - 24.02.2018 22:00:00 (CET)Lycksele, Suède (2261): reduced air pressure: 18.02.2018 22:00:00 - 24.02.2018 22:00:00 (CET)Lycksele, Suède (2261): visibility: 18.02.2018 22:00:00 - 24.02.2018 22:00:00 (CET)Lycksele, Suède (2261): Quantités de précipitations: 18.02.2018 22:00:00 - 24.02.2018 22:00:00 (CET)
Date & Time tt [°C] td [°C] ff [km/h] ff [knt] fx [km/h] fx [knt] dd ppp [hPa] vv [km] rr [mm]
24.02.2018 22:00:00 -29,2 -31,9 2 1 3 2 W 1047,9 50 0,0
24.02.2018 21:00:00 -29,3 -32,0 0 0 3 2 N 1047,7 50 0,0
24.02.2018 20:00:00 -26,6 -29,0 0 0 3 1 N 1047,1 50 0,0
24.02.2018 19:00:00 -25,8 -28,5 0 0 3 1 N 1046,7 50 0,0
24.02.2018 18:00:00 -23,8 -25,9 0 0 3 2 N 1046,0 29 0,0
24.02.2018 17:00:00 -20,1 -21,6 0 0 9 5 N 1045,3 43 0,0
24.02.2018 16:00:00 -14,0 -17,2 7 4 13 7 E 1044,6 50 0,0
24.02.2018 15:00:00 -13,2 -16,7 7 4 12 7 ENE 1044,2 50 0,0
24.02.2018 14:00:00 -15,1 -18,1 0 0 8 4 N 1043,9 47 0,0
24.02.2018 13:00:00 -14,9 -17,4 7 4 13 7 SE 1043,9 41 0,0
24.02.2018 12:00:00 -14,0 -16,3 10 5 13 7 SSE 1043,8 41 0,0
24.02.2018 11:00:00 -14,2 -16,3 9 5 14 7 SE 1043,5 23 0,0
24.02.2018 10:00:00 -14,8 -16,8 7 4 11 6 SSE 1043,2 29 0,2
24.02.2018 09:00:00 -15,7 -17,6 4 2 8 4 SE 1042,9 3,7 0,0
24.02.2018 08:00:00 -16,2 -18,0 5 3 11 6 SE 1042,5 2,0 0,0
24.02.2018 07:00:00 -16,3 -18,1 9 5 14 7 SE 1041,8 2,1 0,0
24.02.2018 06:00:00 -16,4 -18,2 9 5 11 6 ESE 1041,4 2,5 0,0
24.02.2018 05:00:00 -16,5 -18,3 6 3 9 5 ESE 1041,0 6 0,0
24.02.2018 04:00:00 -16,5 -18,3 5 3 10 5 SSE 1040,8 30 0,0
24.02.2018 03:00:00 -16,6 -18,4 7 4 11 6 SE 1040,7 34 0,0
24.02.2018 02:00:00 -17,4 -19,2 7 4 9 5 SE 1040,5 18 0,0
24.02.2018 01:00:00 -15,7 -17,2 5 3 8 4 SSE 1040,3 2,4 0,0
24.02.2018 00:00:00 -17,1 -19,0 0 0 2 1 N 1040,1 2,4 0,0
23.02.2018 23:00:00 -17,4 -19,2 0 0 4 2 N 1039,6 2,4 0,0
23.02.2018 22:00:00 -16,5 -18,2 0 0 6 4 N 1039,2 1,6 0,0
23.02.2018 21:00:00 -15,7 -17,0 6 3 8 4 SE 1038,5 2,0 0,0
23.02.2018 20:00:00 -14,4 -16,2 6 3 10 5 SE 1038,0 3,1 0,0
23.02.2018 19:00:00 -12,0 -13,6 3 2 7 4 ENE 1037,6 4,4 0,0
23.02.2018 18:00:00 -12,3 -14,2 3 1 8 4 N 1037,1 8 0,0
23.02.2018 17:00:00 -11,2 -13,5 5 3 11 6 NNE 1036,6 10 0,0
23.02.2018 16:00:00 -11,0 -13,2 2 1 5 3 NW 1036,0 4,2 0,0
23.02.2018 15:00:00 -10,9 -13,8 0 0 8 4 N 1035,7 7 0,0
23.02.2018 14:00:00 -11,1 -13,7 6 3 14 8 ENE 1035,5 9 0,0
23.02.2018 13:00:00 -11,2 -13,7 9 5 16 9 N 1035,2 12 0,0
23.02.2018 12:00:00 -12,4 -14,7 5 3 9 5 WNW 1035,1 5 0,0
23.02.2018 11:00:00 -14,7 -16,9 3 1 4 2 NNW 1034,7 2,2 0,0
23.02.2018 10:00:00 -15,5 -17,4 0 0 2 1 N 1034,1 1,9 0,1
23.02.2018 09:00:00 -16,6 -18,5 0 0 6 4 N 1033,8 9 0,3
23.02.2018 08:00:00 -18,1 -20,1 5 3 7 4 NW 1033,2 23 0,0
23.02.2018 07:00:00 -19,2 -21,2 4 2 7 4 WNW 1032,8 13 0,0
23.02.2018 06:00:00 -20,4 -22,5 3 2 5 3 NW 1032,4 16 0,0
23.02.2018 05:00:00 -23,0 -25,4 0 0 4 2 N 1032,2 2,0 0,0
23.02.2018 04:00:00 -24,7 -27,3 0 0 4 2 N 1032,1 3,1 0,0
23.02.2018 03:00:00 -28,5 -31,1 3 2 5 3 NW 1031,8 7 0,0
23.02.2018 02:00:00 -29,6 -32,5 3 1 4 2 WNW 1031,8 50 0,0
23.02.2018 01:00:00 -27,6 -30,4 0 0 6 4 N 1031,4 36 0,0
23.02.2018 00:00:00 -27,4 -29,9 4 2 6 3 NW 1030,9 13 0,0
22.02.2018 23:00:00 -30,3 -33,3 3 2 4 2 NW 1031,0 50 0,0
22.02.2018 22:00:00 -29,1 -31,8 0 0 4 2 N 1030,6 50 0,0
22.02.2018 21:00:00 -29,7 -32,6 0 0 5 3 N 1030,4 45 0,0
22.02.2018 20:00:00 -27,7 -30,2 0 0 4 2 N 1030,0 50 0,0
22.02.2018 19:00:00 -26,4 -28,8 0 0 3 2 N 1029,7 50 0,0
22.02.2018 18:00:00 -25,6 -28,0 0 0 3 2 N 1029,4 13 0,0
22.02.2018 17:00:00 -24,0 -26,1 0 0 3 2 N 1029,3 11 0,0
22.02.2018 16:00:00 -20,5 -22,4 0 0 3 2 N 1028,9 48 0,0
22.02.2018 15:00:00 -18,9 -22,5 0 0 4 2 N 1028,9 46 0,0
22.02.2018 14:00:00 -17,2 -20,7 0 0 8 4 N 1029,5 50 0,0
22.02.2018 13:00:00 -18,6 -21,8 3 2 10 5 WNW 1029,8 45 0,0
22.02.2018 12:00:00 -21,6 -24,4 6 3 9 5 NW 1029,9 49 0,0
22.02.2018 11:00:00 -23,5 -26,1 4 2 5 3 NW 1030,3 41 0,0
22.02.2018 10:00:00 -27,0 -29,8 3 2 5 3 NW 1031,0 41 0,0
22.02.2018 09:00:00 -29,0 -31,9 4 2 8 4 NW 1031,1 11 0,0
22.02.2018 08:00:00 -32,0 -35,1 0 0 5 3 N 1031,3 15 0,0
22.02.2018 07:00:00 -32,9 -35,9 3 2 4 2 WNW 1031,4 14 0,0
22.02.2018 06:00:00 -33,2 -36,4 0 0 3 2 N 1031,1 50 0,0
22.02.2018 05:00:00 -31,6 -34,6 2 1 4 2 W 1031,0 50 0,0
22.02.2018 04:00:00 -31,3 -34,3 0 0 2 1 N 1030,8 50 0,0
22.02.2018 03:00:00 -31,0 -34,0 0 0 1 1 N 1030,7 8 0,0
22.02.2018 02:00:00 -30,4 -33,4 0 0 1 1 N 1030,5 3,1 0,0
22.02.2018 01:00:00 -30,1 -33,0 0 0 1 1 N 1030,7 2,0 0,0
22.02.2018 00:00:00 -29,8 -32,7 0 0 3 2 N 1030,7 23 0,0
21.02.2018 23:00:00 -29,2 -32,1 0 0 1 1 N 1030,5 42 0,0
21.02.2018 22:00:00 -28,4 -31,2 0 0 1 1 N 1030,4 50 0,0
21.02.2018 21:00:00 -27,7 -30,3 0 0 1 1 N 1030,3 50 0,0
21.02.2018 20:00:00 -26,6 -29,1 0 0 1 1 N 1029,8 50 0,0
21.02.2018 19:00:00 -25,3 -27,6 0 0 1 1 N 1029,3 48 0,0
21.02.2018 18:00:00 -24,5 -26,8 0 0 1 1 N 1029,1 16 0,0
21.02.2018 17:00:00 -21,8 -23,4 0 0 1 1 N 1028,6 - 0,0
21.02.2018 16:00:00 -19,7 -21,4 0 0 4 2 N 1028,4 29 0,0
21.02.2018 15:00:00 -18,2 -20,9 0 0 4 2 N 1028,6 35 0,0
21.02.2018 14:00:00 -15,8 -20,2 3 2 5 3 E 1028,8 41 0,0
21.02.2018 13:00:00 -17,7 -21,8 0 0 3 1 N 1029,2 32 0,0
21.02.2018 12:00:00 -19,4 -22,1 0 0 1 1 N 1029,5 38 0,0
21.02.2018 11:00:00 -20,4 -22,8 0 0 3 1 N 1029,6 34 0,0
21.02.2018 10:00:00 -22,0 -24,7 0 0 2 1 N 1029,8 3,4 0,0
21.02.2018 09:00:00 -25,7 -28,4 0 0 1 1 N 1030,2 4,7 0,0
21.02.2018 08:00:00 -29,0 -31,9 0 0 1 1 N 1030,2 18 0,0
21.02.2018 07:00:00 -28,8 -31,6 0 0 1 1 N 1030,0 - 0,0
21.02.2018 06:00:00 -27,8 -30,5 0 0 2 1 N 1030,1 6 0,0
21.02.2018 05:00:00 -26,8 -29,3 0 0 1 1 N 1030,2 1,6 0,0
21.02.2018 04:00:00 -26,2 -28,6 0 0 1 1 N 1030,3 3,7 0,0
21.02.2018 03:00:00 -25,2 -27,5 0 0 2 1 N 1030,3 36 0,0
21.02.2018 02:00:00 -24,4 -26,6 0 0 2 1 N 1030,4 1,7 0,0
21.02.2018 01:00:00 -23,3 -25,6 0 0 2 1 N 1030,7 2,3 0,0
21.02.2018 00:00:00 -22,6 -24,7 0 0 2 1 N 1030,6 3,1 0,0
20.02.2018 23:00:00 -21,2 -23,0 0 0 3 1 N 1030,6 4,5 0,0
20.02.2018 22:00:00 -19,9 -21,5 0 0 1 1 N 1030,5 3,4 0,0
20.02.2018 21:00:00 -17,2 -18,4 0 0 1 1 N 1030,2 1,2 0,0
20.02.2018 20:00:00 -14,9 -15,9 0 0 4 2 N 1029,9 1,0 0,0
20.02.2018 19:00:00 -13,6 -15,0 0 0 4 2 N 1030,0 1,5 0,0
20.02.2018 18:00:00 -12,5 -13,9 3 2 8 4 SE 1029,9 1,4 0,0
20.02.2018 17:00:00 -12,2 -13,6 5 3 9 5 SE 1029,9 3,0 0,0
20.02.2018 16:00:00 -11,5 -13,4 8 4 10 6 SSE 1030,0 6 0,0
20.02.2018 15:00:00 -12,0 -14,1 6 4 9 5 SSE 1030,0 10 0,0
20.02.2018 14:00:00 -11,8 -14,0 4 2 11 6 SE 1030,2 2,0 0,0
20.02.2018 13:00:00 -11,7 -13,9 7 4 11 6 SE 1030,4 1,7 0,0
20.02.2018 12:00:00 -13,4 -15,8 0 0 4 2 N 1030,7 2,5 0,5
20.02.2018 11:00:00 -16,1 -18,2 0 0 4 2 N 1031,1 6 1,1
20.02.2018 10:00:00 -17,1 -19,0 0 0 1 1 N 1031,3 1,2 0,2
20.02.2018 09:00:00 -18,5 -20,5 0 0 2 1 N 1031,6 0,8 0,0
20.02.2018 08:00:00 -19,1 -21,1 0 0 4 2 N 1031,3 1,3 0,0
20.02.2018 07:00:00 -19,8 -21,9 0 0 1 1 N 1031,3 1,1 0,0
20.02.2018 06:00:00 -20,4 -22,4 0 0 3 2 N 1031,3 1,5 0,0
20.02.2018 05:00:00 -19,5 -21,5 0 0 3 2 N 1031,5 2,1 0,0
20.02.2018 04:00:00 -18,9 -20,8 3 1 3 2 SE 1031,9 1,4 0,0
20.02.2018 03:00:00 -20,2 -22,2 0 0 1 1 N 1032,3 2,6 0,0
20.02.2018 02:00:00 -21,5 -23,2 0 0 3 2 N 1032,6 33 0,0
20.02.2018 01:00:00 -21,8 -23,9 0 0 2 1 N 1032,6 19 0,0
20.02.2018 00:00:00 -19,1 -21,1 0 0 1 1 N 1032,6 1,6 0,0
19.02.2018 23:00:00 -17,0 -18,9 0 0 1 1 N 1032,6 2,0 0,0
19.02.2018 22:00:00 -15,2 -16,9 0 0 1 1 N 1032,4 2,4 0,0
19.02.2018 21:00:00 -13,7 -15,1 0 0 1 1 N 1032,3 1,7 0,0
19.02.2018 20:00:00 -13,4 -14,8 0 0 3 2 N 1032,3 4,0 0,0
19.02.2018 19:00:00 -15,8 -17,2 2 1 3 2 SSE 1032,2 1,8 0,0
19.02.2018 18:00:00 -13,5 -14,9 0 0 5 3 N 1032,2 5 0,0
19.02.2018 17:00:00 -11,1 -12,7 2 1 8 5 NE 1031,9 2,3 0,0
19.02.2018 16:00:00 -8,8 -10,7 5 3 11 6 E 1031,5 4,0 0,0
19.02.2018 15:00:00 -7,8 -9,6 7 4 11 6 E 1031,0 3,4 0,0
19.02.2018 14:00:00 -7,7 -9,2 4 2 7 4 SE 1030,6 4,2 0,1
19.02.2018 13:00:00 -7,9 -9,4 6 4 8 4 SE 1030,6 7 0,0
19.02.2018 12:00:00 -8,0 -9,3 6 4 10 5 SE 1030,4 5 0,0
19.02.2018 11:00:00 -8,2 -9,5 7 4 9 5 SE 1030,1 8 0,3
19.02.2018 10:00:00 -7,9 -9,3 3 2 6 3 SE 1029,5 4,5 0,1
19.02.2018 09:00:00 -9,2 -10,3 6 3 8 4 SSE 1029,0 2,3 0,0
19.02.2018 08:00:00 -9,6 -10,7 4 2 8 4 SSE 1028,5 2,2 0,0
19.02.2018 07:00:00 -9,9 -11,0 7 4 9 5 SSE 1028,1 10 0,0
19.02.2018 06:00:00 -10,1 -11,1 0 0 4 2 N 1027,5 14 0,0
19.02.2018 05:00:00 -10,3 -11,2 3 2 4 2 SE 1027,2 20 0,0
19.02.2018 04:00:00 -9,2 -9,9 2 1 3 2 SE 1026,9 15 0,0
19.02.2018 03:00:00 -9,2 -10,1 0 0 7 4 N 1026,8 6 0,0
19.02.2018 02:00:00 -8,9 -10,0 3 1 6 3 SE 1026,6 19 0,0
19.02.2018 01:00:00 -7,5 -8,3 3 2 5 3 SE 1026,3 2,0 0,0
19.02.2018 00:00:00 -8,5 -9,4 2 1 5 3 S 1026,1 13 0,0
18.02.2018 23:00:00 -8,2 -9,0 0 0 3 1 N 1025,8 10 0,0
18.02.2018 22:00:00 -7,5 -8,4 0 0 6 3 N 1025,6 25 0,0

tt = Température de l'air
td = dewpoint
ff = Vitesse du vent
fx = gusts
dd = Direction du vent
ppp = reduced air pressure
vv = visibility
rr = Quantités de précipitations

stations d'obs. à proximité